EZY41DC LEIB-EGKK

Flight info

Callsign EZY41DC
Flight time 1h 58m
Altitude 38000
Route EPAMA N856 UMURE DCT XIKEN DCT KARES DCT ARBEK DCT REBUL DCT USKAR DCT MOPAS DCT GIROM DCT GONUP DCT MANAK DCT EPAPU DCT RINSO DCT EKRAS DCT UPALO DCT REVTU DCT ODREP UP88 VASUX
Aircraft A20N/M-SDE2E3FGHIRWXY/LB1

Departure

Time 2026-05-07 19:31
Airport Ibiza Airport (LEIB)

Arrival

Time 2026-05-07 21:29
Airport London Gatwick Airport (EGKK)
Time Latitude Longitude Altitude Speed Heading
2026-05-07 19:00 38.87654 1.37149 8 ft 0 kts 18°
2026-05-07 19:22 38.87640 1.37143 8 ft 4 kts
2026-05-07 19:22 38.87615 1.37145 9 ft 4 kts 326°
2026-05-07 19:22 38.87600 1.37170 8 ft 4 kts 275°
2026-05-07 19:22 38.87603 1.37201 8 ft 2 kts 242°
2026-05-07 19:23 38.87606 1.37207 8 ft 0 kts 242°
2026-05-07 19:25 38.87604 1.37204 8 ft 1 kts 242°
2026-05-07 19:25 38.87593 1.37176 9 ft 6 kts 242°
2026-05-07 19:25 38.87565 1.37109 8 ft 12 kts 242°
2026-05-07 19:26 38.87521 1.37002 8 ft 15 kts 242°
2026-05-07 19:26 38.87473 1.36885 8 ft 14 kts 242°
2026-05-07 19:26 38.87437 1.36802 8 ft 8 kts 233°
2026-05-07 19:26 38.87389 1.36806 8 ft 8 kts 153°
2026-05-07 19:27 38.87335 1.36841 8 ft 9 kts 153°
2026-05-07 19:27 38.87280 1.36852 8 ft 7 kts 217°
2026-05-07 19:27 38.87254 1.36789 10 ft 9 kts 244°
2026-05-07 19:27 38.87226 1.36716 8 ft 10 kts 243°
2026-05-07 19:28 38.87191 1.36631 9 ft 12 kts 243°
2026-05-07 19:28 38.87146 1.36519 9 ft 16 kts 242°
2026-05-07 19:28 38.87088 1.36380 8 ft 18 kts 242°
2026-05-07 19:28 38.87026 1.36230 7 ft 20 kts 242°
2026-05-07 19:29 38.86959 1.36070 8 ft 21 kts 242°
2026-05-07 19:29 38.86893 1.35911 7 ft 19 kts 242°
2026-05-07 19:29 38.86831 1.35770 8 ft 15 kts 222°
2026-05-07 19:29 38.86792 1.35767 9 ft 5 kts 157°
2026-05-07 19:30 38.86750 1.35818 6 ft 13 kts 111°
2026-05-07 19:30 38.86720 1.35942 5 ft 14 kts 85°
2026-05-07 19:30 38.86764 1.36054 5 ft 21 kts 62°
2026-05-07 19:30 38.86942 1.36465 6 ft 84 kts 62°
2026-05-07 19:31 38.87296 1.37333 16 ft 133 kts 61°
2026-05-07 19:31 38.87747 1.38419 372 ft 142 kts 59°
2026-05-07 19:31 38.88227 1.39615 749 ft 160 kts 64°
2026-05-07 19:31 38.88560 1.41024 1173 ft 176 kts 74°
2026-05-07 19:32 38.88832 1.42640 1525 ft 194 kts 76°
2026-05-07 19:32 38.89110 1.44405 1951 ft 207 kts 76°
2026-05-07 19:32 38.89406 1.46206 2758 ft 205 kts 75°
2026-05-07 19:32 38.89715 1.48001 3608 ft 206 kts 74°
2026-05-07 19:33 38.90035 1.49780 4525 ft 207 kts 73°
2026-05-07 19:33 38.90366 1.51588 5400 ft 210 kts 73°
2026-05-07 19:33 38.90762 1.53423 6222 ft 216 kts 66°
2026-05-07 19:33 38.91571 1.55060 6999 ft 219 kts 47°
2026-05-07 19:34 38.92724 1.56398 7692 ft 231 kts 41°
2026-05-07 19:34 38.93995 1.57833 8089 ft 256 kts 41°
2026-05-07 19:34 38.95370 1.59403 8572 ft 274 kts 42°
2026-05-07 19:34 38.96807 1.61052 9417 ft 279 kts 42°
2026-05-07 19:35 38.98277 1.62746 10180 ft 287 kts 42°
2026-05-07 19:35 38.99843 1.64373 10960 ft 291 kts 32°
2026-05-07 19:35 39.01699 1.65380 11720 ft 298 kts 13°
2026-05-07 19:35 39.03787 1.65739 12476 ft 304 kts
2026-05-07 19:36 39.05887 1.66006 13236 ft 309 kts
2026-05-07 19:36 39.08062 1.66253 13933 ft 315 kts
2026-05-07 19:36 39.10258 1.65969 14629 ft 318 kts 346°
2026-05-07 19:36 39.12351 1.65006 15287 ft 323 kts 335°
2026-05-07 19:37 39.14455 1.63815 15549 ft 343 kts 335°
2026-05-07 19:37 39.16724 1.62537 15743 ft 364 kts 335°
2026-05-07 19:37 39.19069 1.61222 16090 ft 377 kts 336°
2026-05-07 19:37 39.21501 1.59863 16727 ft 381 kts 336°
2026-05-07 19:38 39.23962 1.58487 17349 ft 387 kts 336°
2026-05-07 19:38 39.26422 1.57111 17996 ft 391 kts 336°
2026-05-07 19:38 39.28945 1.55700 18598 ft 394 kts 336°
2026-05-07 19:38 39.31444 1.54300 19193 ft 397 kts 336°
2026-05-07 19:39 39.34000 1.52868 19771 ft 400 kts 335°
2026-05-07 19:39 39.36557 1.51437 20489 ft 399 kts 335°
2026-05-07 19:39 39.39126 1.49995 21023 ft 404 kts 335°
2026-05-07 19:39 39.41687 1.48554 21543 ft 408 kts 335°
2026-05-07 19:40 39.44311 1.47076 22095 ft 411 kts 335°
2026-05-07 19:40 39.46951 1.45588 22632 ft 415 kts 335°
2026-05-07 19:40 39.49581 1.44105 23152 ft 419 kts 335°
2026-05-07 19:40 39.52271 1.42586 23651 ft 422 kts 335°
2026-05-07 19:41 39.54984 1.41054 24100 ft 425 kts 335°
2026-05-07 19:41 39.57680 1.39546 24565 ft 428 kts 336°
2026-05-07 19:41 39.60549 1.38326 24776 ft 439 kts 345°
2026-05-07 19:41 39.63571 1.37612 25242 ft 442 kts 352°
2026-05-07 19:42 39.66649 1.37221 25674 ft 445 kts 353°
2026-05-07 19:42 39.69744 1.36814 26084 ft 448 kts 353°
2026-05-07 19:42 39.72864 1.36394 26487 ft 451 kts 353°
2026-05-07 19:42 39.75960 1.35978 26878 ft 454 kts 353°
2026-05-07 19:43 39.79115 1.35555 27273 ft 456 kts 353°
2026-05-07 19:43 39.82300 1.35127 27508 ft 463 kts 353°
2026-05-07 19:43 39.85524 1.34697 27838 ft 466 kts 353°
2026-05-07 19:43 39.88725 1.34271 28221 ft 468 kts 353°
2026-05-07 19:44 39.91997 1.33836 28573 ft 471 kts 353°
2026-05-07 19:44 39.95278 1.33399 28916 ft 474 kts 353°
2026-05-07 19:44 39.98535 1.32963 29248 ft 476 kts 353°
2026-05-07 19:44 40.01851 1.32520 29561 ft 479 kts 353°
2026-05-07 19:45 40.05181 1.32074 29756 ft 484 kts 353°
2026-05-07 19:45 40.08552 1.31622 30057 ft 487 kts 353°
2026-05-07 19:45 40.11889 1.31174 30404 ft 487 kts 353°
2026-05-07 19:45 40.15283 1.30719 30793 ft 486 kts 353°
2026-05-07 19:46 40.18654 1.30266 31174 ft 486 kts 352°
2026-05-07 19:46 40.21970 1.29821 31632 ft 483 kts 352°
2026-05-07 19:46 40.25313 1.29371 32158 ft 479 kts 352°
2026-05-07 19:46 40.28649 1.28921 32429 ft 481 kts 352°
2026-05-07 19:47 40.31982 1.28471 32835 ft 479 kts 351°
2026-05-07 19:47 40.35249 1.28031 33304 ft 476 kts 351°
2026-05-07 19:47 40.38548 1.27587 33762 ft 472 kts 351°
2026-05-07 19:47 40.41814 1.27147 34160 ft 470 kts 350°
2026-05-07 19:48 40.45057 1.26708 34468 ft 468 kts 350°
2026-05-07 19:48 40.48255 1.26273 34711 ft 469 kts 350°
2026-05-07 19:48 40.51521 1.25828 34834 ft 471 kts 350°
2026-05-07 19:48 40.54783 1.25384 35093 ft 470 kts 350°
2026-05-07 19:49 40.58040 1.24941 35381 ft 468 kts 350°
2026-05-07 19:49 40.61277 1.24502 35654 ft 467 kts 350°
2026-05-07 19:49 40.64503 1.24062 35907 ft 466 kts 349°
2026-05-07 19:49 40.67683 1.23628 36148 ft 465 kts 349°
2026-05-07 19:50 40.70907 1.23188 36387 ft 464 kts 349°
2026-05-07 19:50 40.74122 1.22748 36627 ft 463 kts 349°
2026-05-07 19:50 40.77285 1.22315 36844 ft 462 kts 349°
2026-05-07 19:50 40.80480 1.21877 37049 ft 461 kts 349°
2026-05-07 19:51 40.83674 1.21439 37269 ft 460 kts 349°
2026-05-07 19:51 40.86872 1.21000 37470 ft 459 kts 349°
2026-05-07 19:51 40.90049 1.20563 37670 ft 458 kts 349°
2026-05-07 19:51 40.93182 1.20131 37828 ft 459 kts 349°
2026-05-07 19:52 40.96363 1.19693 37977 ft 458 kts 349°
2026-05-07 19:52 40.99549 1.19254 37992 ft 457 kts 349°
2026-05-07 19:52 41.05847 1.18386 37993 ft 456 kts 349°
2026-05-07 19:53 41.12144 1.17514 37993 ft 457 kts 349°
2026-05-07 19:53 41.18473 1.16696 37995 ft 459 kts 351°
2026-05-07 19:54 41.24849 1.16071 37993 ft 458 kts 351°
2026-05-07 19:54 41.31175 1.15428 37990 ft 458 kts 351°
2026-05-07 19:55 41.37545 1.14758 37992 ft 457 kts 351°
2026-05-07 19:55 41.43845 1.14095 37997 ft 457 kts 351°
2026-05-07 19:56 41.50206 1.13425 37999 ft 457 kts 351°
2026-05-07 19:56 41.56534 1.12757 38013 ft 457 kts 351°
2026-05-07 19:57 41.62862 1.12085 37998 ft 458 kts 351°
2026-05-07 19:57 41.69229 1.11410 37989 ft 458 kts 351°
2026-05-07 19:58 41.75559 1.10738 37974 ft 458 kts 351°
2026-05-07 19:58 41.81931 1.10057 37963 ft 459 kts 351°
2026-05-07 19:59 41.88286 1.09379 37955 ft 459 kts 351°
2026-05-07 19:59 41.94631 1.08701 37948 ft 459 kts 351°
2026-05-07 20:00 42.01011 1.08017 37949 ft 460 kts 351°
2026-05-07 20:00 42.07392 1.07332 37961 ft 460 kts 351°
2026-05-07 20:01 42.13778 1.06646 37980 ft 461 kts 351°
2026-05-07 20:01 42.20173 1.05958 38037 ft 461 kts 352°
2026-05-07 20:02 42.26576 1.05267 38021 ft 462 kts 352°
2026-05-07 20:02 42.32989 1.04576 38023 ft 462 kts 352°
2026-05-07 20:03 42.39356 1.03888 38023 ft 462 kts 352°
2026-05-07 20:03 42.45776 1.03192 38013 ft 463 kts 352°
2026-05-07 20:04 42.52192 1.02493 38013 ft 463 kts 352°
2026-05-07 20:04 42.58610 1.01792 38010 ft 463 kts 352°
2026-05-07 20:05 42.65029 1.01090 38001 ft 462 kts 352°
2026-05-07 20:05 42.71445 1.00386 37994 ft 463 kts 352°
2026-05-07 20:06 42.77838 0.99469 37986 ft 460 kts 346°
2026-05-07 20:06 42.84029 0.97445 37977 ft 456 kts 342°
2026-05-07 20:07 42.89144 0.95700 37965 ft 456 kts 342°
2026-05-07 20:07 42.95301 0.93589 37969 ft 457 kts 342°
2026-05-07 20:08 43.01466 0.91459 37982 ft 457 kts 342°
2026-05-07 20:08 43.07636 0.89319 37984 ft 458 kts 342°
2026-05-07 20:09 43.13814 0.87174 37983 ft 458 kts 342°
2026-05-07 20:10 43.23058 0.83956 37971 ft 456 kts 342°
2026-05-07 20:10 43.29208 0.81807 37961 ft 456 kts 342°
2026-05-07 20:11 43.35355 0.79657 37957 ft 456 kts 342°
2026-05-07 20:11 43.41503 0.77502 37955 ft 456 kts 342°
2026-05-07 20:12 43.47560 0.74992 37955 ft 453 kts 334°
2026-05-07 20:12 43.53352 0.71585 37952 ft 453 kts 333°
2026-05-07 20:13 43.59154 0.68192 37954 ft 453 kts 333°
2026-05-07 20:13 43.64958 0.64780 37949 ft 454 kts 333°
2026-05-07 20:14 43.70768 0.61347 37949 ft 454 kts 333°
2026-05-07 20:14 43.76581 0.57903 37956 ft 455 kts 333°
2026-05-07 20:15 43.82392 0.54452 37958 ft 455 kts 333°
2026-05-07 20:15 43.88212 0.50988 37961 ft 455 kts 333°
2026-05-07 20:16 43.94028 0.47519 37961 ft 455 kts 333°
2026-05-07 20:16 43.99849 0.44040 37964 ft 456 kts 333°
2026-05-07 20:17 44.05632 0.40577 37972 ft 456 kts 333°
2026-05-07 20:17 44.11453 0.37083 37967 ft 456 kts 333°
2026-05-07 20:18 44.17276 0.33580 37967 ft 456 kts 333°
2026-05-07 20:18 44.23099 0.30071 37973 ft 456 kts 333°
2026-05-07 20:19 44.28914 0.26557 37958 ft 455 kts 333°
2026-05-07 20:19 44.34724 0.23041 37950 ft 455 kts 333°
2026-05-07 20:20 44.40528 0.19519 37945 ft 454 kts 333°
2026-05-07 20:20 44.46326 0.15993 37948 ft 454 kts 333°
2026-05-07 20:21 44.52121 0.12462 37945 ft 454 kts 333°
2026-05-07 20:21 44.57913 0.08926 37946 ft 454 kts 333°
2026-05-07 20:22 44.63704 0.05381 37936 ft 454 kts 333°
2026-05-07 20:22 44.69497 0.01827 37951 ft 454 kts 333°
2026-05-07 20:23 44.75289 -0.01732 37942 ft 453 kts 333°
2026-05-07 20:23 44.81062 -0.05288 37948 ft 453 kts 333°
2026-05-07 20:24 44.86830 -0.08849 37956 ft 453 kts 333°
2026-05-07 20:24 44.92565 -0.12398 37950 ft 453 kts 333°
2026-05-07 20:25 44.98335 -0.15975 37946 ft 453 kts 333°
2026-05-07 20:25 45.04108 -0.19564 37948 ft 453 kts 333°
2026-05-07 20:26 45.09882 -0.23159 37957 ft 453 kts 333°
2026-05-07 20:26 45.15659 -0.26766 37957 ft 453 kts 333°
2026-05-07 20:27 45.21440 -0.30383 37953 ft 454 kts 333°
2026-05-07 20:27 45.27178 -0.33981 37958 ft 454 kts 333°
2026-05-07 20:28 45.32965 -0.37617 37957 ft 454 kts 333°
2026-05-07 20:28 45.38711 -0.41236 37980 ft 454 kts 333°
2026-05-07 20:29 45.44491 -0.44885 37963 ft 454 kts 333°
2026-05-07 20:29 45.50293 -0.48556 37967 ft 455 kts 333°
2026-05-07 20:30 45.56057 -0.52210 37968 ft 455 kts 333°
2026-05-07 20:30 45.61834 -0.55882 37971 ft 455 kts 333°
2026-05-07 20:31 45.67588 -0.59547 37972 ft 455 kts 333°
2026-05-07 20:31 45.73386 -0.63249 37965 ft 454 kts 333°
2026-05-07 20:32 45.79136 -0.66928 37969 ft 455 kts 333°
2026-05-07 20:32 45.84929 -0.70643 37969 ft 454 kts 333°
2026-05-07 20:33 45.90671 -0.74334 37967 ft 454 kts 333°
2026-05-07 20:33 45.96447 -0.78056 37967 ft 454 kts 333°
2026-05-07 20:34 46.02228 -0.81788 37975 ft 454 kts 333°
2026-05-07 20:34 46.07983 -0.85513 37975 ft 454 kts 333°
2026-05-07 20:35 46.13706 -0.89224 37975 ft 453 kts 333°
2026-05-07 20:35 46.19488 -0.92929 37973 ft 454 kts 336°
2026-05-07 20:36 46.25573 -0.95460 37963 ft 458 kts 346°
2026-05-07 20:36 46.31778 -0.97358 37960 ft 457 kts 345°
2026-05-07 20:37 46.37998 -0.99286 37961 ft 457 kts 345°
2026-05-07 20:37 46.44203 -1.01199 37967 ft 457 kts 345°
2026-05-07 20:38 46.50410 -1.03112 37965 ft 457 kts 345°
2026-05-07 20:38 46.56640 -1.05037 37986 ft 457 kts 345°
2026-05-07 20:39 46.62816 -1.06949 37983 ft 457 kts 345°
2026-05-07 20:39 46.69038 -1.08880 37982 ft 457 kts 345°
2026-05-07 20:40 46.75247 -1.10811 37982 ft 457 kts 345°
2026-05-07 20:40 46.81476 -1.12754 37980 ft 457 kts 345°
2026-05-07 20:41 46.87698 -1.14698 37980 ft 457 kts 345°
2026-05-07 20:41 46.93923 -1.16649 37986 ft 457 kts 345°
2026-05-07 20:42 47.00147 -1.18603 37976 ft 457 kts 345°
2026-05-07 20:42 47.06338 -1.20552 37971 ft 458 kts 345°
2026-05-07 20:43 47.12569 -1.22519 37979 ft 458 kts 345°
2026-05-07 20:43 47.18801 -1.24490 37985 ft 456 kts 345°
2026-05-07 20:44 47.25009 -1.26458 37984 ft 456 kts 345°
2026-05-07 20:44 47.31205 -1.28428 37983 ft 456 kts 345°
2026-05-07 20:45 47.37372 -1.30392 37978 ft 456 kts 345°
2026-05-07 20:45 47.43560 -1.32368 37975 ft 455 kts 345°
2026-05-07 20:46 47.49759 -1.34353 37976 ft 455 kts 345°
2026-05-07 20:46 47.55948 -1.36339 37980 ft 455 kts 345°
2026-05-07 20:47 47.62135 -1.38329 37979 ft 455 kts 345°
2026-05-07 20:47 47.68289 -1.40313 37980 ft 455 kts 345°
2026-05-07 20:48 47.74597 -1.41442 37979 ft 458 kts 355°
2026-05-07 20:48 47.80952 -1.41910 37991 ft 458 kts 354°
2026-05-07 20:49 47.87299 -1.42410 37995 ft 458 kts 354°
2026-05-07 20:49 47.93674 -1.42897 38003 ft 458 kts 354°
2026-05-07 20:50 48.00022 -1.43377 38009 ft 458 kts 354°
2026-05-07 20:50 48.06399 -1.43852 38015 ft 458 kts 355°
2026-05-07 20:51 48.12751 -1.44302 38014 ft 458 kts 355°
2026-05-07 20:51 48.19102 -1.44755 38013 ft 458 kts 355°
2026-05-07 20:52 48.25484 -1.45213 38013 ft 458 kts 355°
2026-05-07 20:52 48.31861 -1.45673 38009 ft 458 kts 355°
2026-05-07 20:53 48.38198 -1.46131 38002 ft 458 kts 355°
2026-05-07 20:53 48.44568 -1.46592 38001 ft 458 kts 355°
2026-05-07 20:54 48.50940 -1.47055 38003 ft 458 kts 355°
2026-05-07 20:54 48.57278 -1.47517 38009 ft 458 kts 355°
2026-05-07 20:55 48.63620 -1.47980 38007 ft 458 kts 355°
2026-05-07 20:55 48.70002 -1.48447 38004 ft 458 kts 355°
2026-05-07 20:56 48.76353 -1.48913 38008 ft 458 kts 355°
2026-05-07 20:56 48.82705 -1.49381 38012 ft 458 kts 355°
2026-05-07 20:57 48.89083 -1.49935 38014 ft 457 kts 351°
2026-05-07 20:57 48.95297 -1.51670 38013 ft 455 kts 345°
2026-05-07 20:58 49.01517 -1.53646 38016 ft 456 kts 346°
2026-05-07 20:58 49.07745 -1.55629 38037 ft 456 kts 345°
2026-05-07 20:59 49.13918 -1.57616 38028 ft 457 kts 345°
2026-05-07 20:59 49.20142 -1.59629 38028 ft 457 kts 345°
2026-05-07 21:00 49.26353 -1.61643 38036 ft 456 kts 345°
2026-05-07 21:00 49.32543 -1.63655 38043 ft 456 kts 345°
2026-05-07 21:01 49.38753 -1.65679 38046 ft 456 kts 345°
2026-05-07 21:01 49.44969 -1.67710 38048 ft 456 kts 345°
2026-05-07 21:02 49.51152 -1.69735 38049 ft 456 kts 345°
2026-05-07 21:02 49.57438 -1.71208 38044 ft 459 kts 356°
2026-05-07 21:03 49.63774 -1.70127 38041 ft 463 kts 13°
2026-05-07 21:03 49.69903 -1.66914 38037 ft 464 kts 18°
2026-05-07 21:04 49.75967 -1.63585 37981 ft 462 kts 18°
2026-05-07 21:04 49.77972 -1.62480 37753 ft 462 kts 18°
2026-05-07 21:04 49.82006 -1.60249 36820 ft 465 kts 18°
2026-05-07 21:04 49.84044 -1.59118 36236 ft 468 kts 18°
2026-05-07 21:05 49.87151 -1.57392 35281 ft 474 kts 18°
2026-05-07 21:05 49.90244 -1.55670 34329 ft 480 kts 19°
2026-05-07 21:05 49.93428 -1.53895 33344 ft 484 kts 19°
2026-05-07 21:05 49.96576 -1.52134 32371 ft 483 kts 19°
2026-05-07 21:06 49.99748 -1.50358 31280 ft 483 kts 19°
2026-05-07 21:06 50.02891 -1.48675 30225 ft 483 kts 17°
2026-05-07 21:06 50.06104 -1.47118 29418 ft 476 kts 15°
2026-05-07 21:06 50.09193 -1.45657 29286 ft 458 kts 15°
2026-05-07 21:07 50.12221 -1.44213 29103 ft 449 kts 15°
2026-05-07 21:07 50.15197 -1.42779 28520 ft 448 kts 16°
2026-05-07 21:07 50.18194 -1.41320 28385 ft 451 kts 16°
2026-05-07 21:07 50.21161 -1.39868 28207 ft 449 kts 16°
2026-05-07 21:08 50.24156 -1.38396 27305 ft 450 kts 16°
2026-05-07 21:08 50.27135 -1.36930 26047 ft 455 kts 16°
2026-05-07 21:08 50.30176 -1.35431 24893 ft 456 kts 16°
2026-05-07 21:08 50.33160 -1.33957 23971 ft 450 kts 16°
2026-05-07 21:09 50.36138 -1.32484 22966 ft 444 kts 16°
2026-05-07 21:09 50.39051 -1.31041 22171 ft 433 kts 16°
2026-05-07 21:09 50.41854 -1.29650 21706 ft 417 kts 16°
2026-05-07 21:09 50.44608 -1.28284 21152 ft 411 kts 16°
2026-05-07 21:10 50.47312 -1.26931 20617 ft 407 kts 18°
2026-05-07 21:10 50.49897 -1.25165 20082 ft 403 kts 27°
2026-05-07 21:10 50.52237 -1.22831 19557 ft 399 kts 37°
2026-05-07 21:10 50.54361 -1.20077 19028 ft 395 kts 40°
2026-05-07 21:11 50.56468 -1.17301 18503 ft 392 kts 39°
2026-05-07 21:11 50.58547 -1.14577 17951 ft 388 kts 39°
2026-05-07 21:11 50.62630 -1.09212 16963 ft 378 kts 40°
2026-05-07 21:12 50.64644 -1.06556 16483 ft 374 kts 40°
2026-05-07 21:12 50.66493 -1.03735 15995 ft 370 kts 49°
2026-05-07 21:12 50.68122 -1.00605 15513 ft 366 kts 51°
2026-05-07 21:12 50.69732 -0.97491 15040 ft 363 kts 51°
2026-05-07 21:13 50.71308 -0.94461 14575 ft 360 kts 51°
2026-05-07 21:13 50.72893 -0.91411 14065 ft 358 kts 51°
2026-05-07 21:13 50.74468 -0.88373 13589 ft 354 kts 51°
2026-05-07 21:13 50.75986 -0.85439 13407 ft 342 kts 51°
2026-05-07 21:14 50.77474 -0.82557 13268 ft 328 kts 51°
2026-05-07 21:14 50.78891 -0.79810 13113 ft 317 kts 51°
2026-05-07 21:14 50.80227 -0.77131 13072 ft 310 kts 57°
2026-05-07 21:14 50.81205 -0.74087 12826 ft 312 kts 72°
2026-05-07 21:15 50.81696 -0.70737 12437 ft 312 kts 81°
2026-05-07 21:15 50.82068 -0.67390 12113 ft 308 kts 81°
2026-05-07 21:15 50.82442 -0.64099 11798 ft 307 kts 81°
2026-05-07 21:15 50.82829 -0.60747 11471 ft 307 kts 80°
2026-05-07 21:16 50.83214 -0.57421 11154 ft 305 kts 80°
2026-05-07 21:16 50.83593 -0.54152 10839 ft 305 kts 80°
2026-05-07 21:16 50.83974 -0.50849 10521 ft 303 kts 80°
2026-05-07 21:16 50.84354 -0.47551 10203 ft 303 kts 80°
2026-05-07 21:17 50.84728 -0.44293 9887 ft 302 kts 80°
2026-05-07 21:17 50.85104 -0.41016 9555 ft 300 kts 80°
2026-05-07 21:17 50.85470 -0.37809 9231 ft 296 kts 79°
2026-05-07 21:17 50.85833 -0.34624 8911 ft 294 kts 80°
2026-05-07 21:18 50.86192 -0.31471 8768 ft 283 kts 80°
2026-05-07 21:18 50.86534 -0.28452 8665 ft 271 kts 80°
2026-05-07 21:18 50.86858 -0.25596 8488 ft 263 kts 80°
2026-05-07 21:18 50.87179 -0.22745 8169 ft 261 kts 80°
2026-05-07 21:19 50.87493 -0.19946 7852 ft 258 kts 81°
2026-05-07 21:19 50.87892 -0.17201 7542 ft 254 kts 63°
2026-05-07 21:19 50.88980 -0.15080 7246 ft 248 kts 33°
2026-05-07 21:19 50.90538 -0.14167 7144 ft 241 kts
2026-05-07 21:20 50.92184 -0.14683 7163 ft 242 kts 331°
2026-05-07 21:20 50.93407 -0.16425 7165 ft 240 kts 300°
2026-05-07 21:20 50.93954 -0.18927 7165 ft 241 kts 281°
2026-05-07 21:20 50.94282 -0.21522 7161 ft 240 kts 281°
2026-05-07 21:21 50.94605 -0.24104 7167 ft 239 kts 281°
2026-05-07 21:21 50.94927 -0.26694 7100 ft 241 kts 281°
2026-05-07 21:21 50.95249 -0.29296 6741 ft 241 kts 281°
2026-05-07 21:21 50.95569 -0.31919 6240 ft 242 kts 281°
2026-05-07 21:22 50.95885 -0.34518 5775 ft 242 kts 281°
2026-05-07 21:22 50.96257 -0.37111 5302 ft 241 kts 292°
2026-05-07 21:22 50.97223 -0.39231 4824 ft 240 kts 323°
2026-05-07 21:22 50.98631 -0.40634 4312 ft 241 kts 330°
2026-05-07 21:23 51.00108 -0.41990 3792 ft 244 kts 331°
2026-05-07 21:23 51.01566 -0.43334 3416 ft 240 kts 331°
2026-05-07 21:23 51.02979 -0.44645 3317 ft 237 kts 331°
2026-05-07 21:23 51.04411 -0.45976 3215 ft 236 kts 331°
2026-05-07 21:24 51.05822 -0.47289 3116 ft 231 kts 331°
2026-05-07 21:24 51.07150 -0.48530 3102 ft 216 kts 330°
2026-05-07 21:24 51.08437 -0.49607 3092 ft 201 kts 348°
2026-05-07 21:24 51.09804 -0.49464 3141 ft 203 kts 28°
2026-05-07 21:25 51.10714 -0.47933 3110 ft 184 kts 67°
2026-05-07 21:25 51.11093 -0.46087 3105 ft 171 kts 78°
2026-05-07 21:25 51.11337 -0.44238 3105 ft 165 kts 80°
2026-05-07 21:25 51.11574 -0.42509 2992 ft 159 kts 79°
2026-05-07 21:26 51.11809 -0.40795 2802 ft 159 kts 79°
2026-05-07 21:26 51.12047 -0.39076 2578 ft 158 kts 79°
2026-05-07 21:26 51.12283 -0.37362 2375 ft 158 kts 79°
2026-05-07 21:26 51.12517 -0.35674 2188 ft 153 kts 80°
2026-05-07 21:27 51.12738 -0.34073 1979 ft 145 kts 80°
2026-05-07 21:27 51.12953 -0.32516 1786 ft 144 kts 80°
2026-05-07 21:27 51.13168 -0.30954 1581 ft 144 kts 80°
2026-05-07 21:27 51.13380 -0.29416 1383 ft 144 kts 80°
2026-05-07 21:28 51.13595 -0.27855 1180 ft 144 kts 79°
2026-05-07 21:28 51.13812 -0.26284 966 ft 144 kts 79°
2026-05-07 21:28 51.14026 -0.24735 762 ft 144 kts 79°
2026-05-07 21:28 51.14240 -0.23180 566 ft 143 kts 78°
2026-05-07 21:29 51.14457 -0.21624 333 ft 143 kts 79°
2026-05-07 21:29 51.14668 -0.20095 219 ft 139 kts 78°
2026-05-07 21:29 51.14835 -0.18878 205 ft 73 kts 77°
2026-05-07 21:29 51.14943 -0.18511 207 ft 26 kts 51°
2026-05-07 21:30 51.15051 -0.18293 207 ft 25 kts 52°
2026-05-07 21:30 51.15103 -0.18201 206 ft 3 kts 30°
2026-05-07 21:30 51.15153 -0.18192 203 ft 10 kts 349°
2026-05-07 21:30 51.15232 -0.18222 203 ft 13 kts 347°
2026-05-07 21:31 51.15335 -0.18258 211 ft 17 kts 347°
2026-05-07 21:31 51.15439 -0.18294 208 ft 15 kts 348°
2026-05-07 21:31 51.15550 -0.18303 206 ft 17 kts 28°
2026-05-07 21:31 51.15644 -0.18231 203 ft 14 kts 19°
2026-05-07 21:32 51.15680 -0.18094 207 ft 15 kts 77°
2026-05-07 21:32 51.15696 -0.17980 207 ft 8 kts 78°
2026-05-07 21:32 51.15705 -0.17891 209 ft 8 kts 101°
2026-05-07 21:32 51.15664 -0.17858 210 ft 0 kts 167°
2026-05-07 21:33 51.15650 -0.17852 205 ft 4 kts 167°
2026-05-07 21:33 51.15638 -0.17848 205 ft 0 kts 167°